Location: Paris
(48.8566°N, 2.3522°E)
Time: 18:38:43
(UTC+02:00)

Tiangong - Visible Passes

Search period start: 25 September 2021 00:00
Search period end: 05 October 2021 00:00
Orbit: 382 x 385 km, 41.5° (Epoch: 25 September)

Date Brightness Start Highest point End Pass type
(mag) Time Alt. Az. Time Alt. Az. Time Alt. Az.
27 Sep 3.8 06:37:01 10° S 06:37:56 11° SSE 06:38:52 10° SE visible
28 Sep 3.3 07:12:05 10° SW 07:14:21 18° SSE 07:16:36 10° ESE visible
29 Sep 3.4 06:13:39 13° S 06:14:38 15° SSE 06:16:30 10° SE visible
30 Sep 3.0 06:48:51 11° SW 06:51:05 20° S 06:53:32 10° ESE visible
01 Oct 3.3 05:51:49 18° SSE 05:51:49 18° SSE 05:53:37 10° ESE visible
02 Oct 2.8 06:26:58 19° SSW 06:27:50 21° S 06:30:20 10° SE visible
03 Oct 3.9 05:29:56 13° SE 05:29:56 13° SE 05:30:30 10° SE visible
03 Oct 3.1 07:02:08 10° SW 07:04:18 18° SSW 07:06:33 10° SE visible
04 Oct 3.0 06:05:07 19° S 06:05:07 19° S 06:06:59 10° SE visible
